Location: Geroldsau
(48.7259°N, 8.2466°E)
Time: 10:33:59
(UTC+00:00)

USA 267 - Pass Details

Date: 20 June 2021
Orbit: 1102 x 1106 km, 123.0° (Epoch: 24 July)

Event Time Altitude Azimuth Distance (km) Brightness Sun altitude
Exits shadow 01:19:14 17° 220° (SW) 2,443 4.5 -13.7°
Maximum altitude 01:20:46 19° 237° (WSW) 2,365 4.5 -13.6°
Drops below altitude 10° 01:25:10 10° 280° (W) 2,963 5.4 -13.3°
Sets 01:28:34 0° 298° (WNW) 3,926 6.2 -13.0°
